Kuiper-00035

operational
NORAD ID: 63748 Int'l Des: 2025-088 Owner: KUIP Country: US Constellation: kuiper
LEOCIRCULARSTARLINK_TYPE

About Kuiper-00035

Description loading...

Live Position

Loading 3D Globe...

Upcoming Passes

Altitude History

Altitude vs Time

uPlot chart will show altitude changes over time

Two-Line Element Set

1 63748U 25088AA 25260.96616046 .00003007 00000-0 42375-3 0 9998
2 63748 51.9004 157.8844 0004435 212.2864 147.7828 14.79890808 21933
Epoch: Sep 17, 2025 • Age: 28 hours

Current Status

Altitude 635.0 km
Velocity 7.54 km/s
Sub-Earth Point 34.01°N, 142.09°E
Launch Date Apr 28, 2025
Age 0.3 years
Type internet

Technical Details

Classification Payload
Mass 490.00 kg
Dry Mass 490.00 kg
Total Mass 490.00 kg
Length 1.80 m
Diameter 0.70 m
Span 5.00 m
Shape Box + 2 pan
Manufacturer KUIP
Bus Type Kuiper
Phase Status In Orbit
Owner/State KUIP/US

Large Constellations

Loading constellations...